Burns, OR

6:31 PM PDT on September 25, 2017 (GMT -0700)
Burns Municipal

Weather History for KBNO - January, 2014

Change the Weather History Date:

Thursday, January 9, 2014

  Actual Average Record
Temperature  
Mean Temperature 33 °F 24 °F  
Max Temperature 38 °F 34 °F 57 °F (1990)
Min Temperature 27 °F 14 °F -11 °F (1977)
Degree Days  
Heating Degree Days 32 41  
Month to date heating degree days 333 369  
Since 1 July heating degree days 3666 3636  
Cooling Degree Days 0 0  
Month to date cooling degree days 0 0  
Year to date cooling degree days 0 0  
Moisture  
Dew Point 28 °F    
Average Humidity 78    
Maximum Humidity 92    
Minimum Humidity 64    
Precipitation  
Precipitation 0.01 in 0.05 in 0.46 in (1978)
Month to date precipitation 0.19 0.40  
Year to date precipitation 0.19 0.40  
Sea Level Pressure  
Sea Level Pressure 30.03 in    
Wind  
Wind Speed 9 mph (SW)    
Max Wind Speed 23 mph    
Max Gust Speed 30 mph    
Visibility 9 miles    
Events Snow    
T = Trace of Precipitation, MM = Missing Value Source: NWS Daily Summary

Daily Weather History Graph

Daily Weather History Graph

Search for Another Location

Airport or City:

Trip Planner

Search our weather history database for the weather conditions in past years. The results will help you decide how hot, cold, wet, or windy it might be!

Date:

Astronomy

Jan. 09, 2014 Rise Set
Actual Time 7:28 AM PST 4:38 PM PST
Civil Twilight 6:56 AM PST 5:10 PM PST
Nautical Twilight 6:20 AM PST 5:46 PM PST
Astronomical Twilight 5:45 AM PST 6:20 PM PST
Moon 12:11 PM PST (1/9) 1:36 AM PST (1/9)
Length of Visible Light 10h 14m
Length of Day
9h 09m
Waxing Gibbous, 67% of the Moon is Illuminated
Jan 9
Waxing Gibbous
Jan 15
Full
Jan 23
Last Quarter
Jan 30
New
Feb 6
First Quarter

Hourly Weather History & Observations

Time (PST) Temp. Windchill Dew Point Humidity Pressure Visibility Wind Dir Wind Speed Gust Speed Precip Events Conditions
12:53 AM 37.0 °F 29.3 °F 32.0 °F 82% 29.91 in 10.0 mi SW 11.5 mph - N/A   Overcast
1:53 AM 35.1 °F 26.4 °F 32.0 °F 89% 29.93 in 10.0 mi SW 12.7 mph - N/A   Scattered Clouds
2:51 AM 33.8 °F 23.9 °F 30.2 °F 87% 29.94 in 2.5 mi West 15.0 mph 29.9 mph 0.00 in Snow Light Snow
2:52 AM 34.0 °F 23.8 °F 30.9 °F 89% 29.98 in 2.5 mi West 16.1 mph 29.9 mph 0.00 in Snow Light Snow
3:00 AM 34.0 °F 23.0 °F 30.0 °F 85% 29.94 in 7.0 mi West 18.4 mph 25.3 mph 0.00 in Snow Light Snow
3:53 AM 33.1 °F 26.1 °F 30.0 °F 89% 30.00 in 9.0 mi West 8.1 mph - 0.00 in   Overcast
4:53 AM 30.9 °F 22.2 °F 27.0 °F 85% 30.02 in 10.0 mi SW 10.4 mph - N/A   Scattered Clouds
5:53 AM 32.0 °F 21.6 °F 25.0 °F 75% 30.03 in 10.0 mi West 15.0 mph 21.9 mph N/A   Clear
6:53 AM 32.0 °F 21.6 °F 25.0 °F 75% 30.05 in 10.0 mi West 15.0 mph - N/A   Partly Cloudy
7:53 AM 28.0 °F 24.2 °F 24.1 °F 85% 30.09 in 10.0 mi WSW 3.5 mph - N/A   Clear
8:53 AM 33.1 °F 28.7 °F 26.1 °F 75% 30.11 in 10.0 mi SW 4.6 mph - N/A   Partly Cloudy
9:53 AM 35.1 °F 27.9 °F 25.0 °F 67% 30.10 in 10.0 mi West 9.2 mph - N/A   Clear
10:53 AM 36.0 °F 27.1 °F 25.0 °F 64% 30.10 in 10.0 mi SW 13.8 mph - N/A   Mostly Cloudy
11:53 AM 36.0 °F 27.1 °F 24.1 °F 62% 30.08 in 10.0 mi WSW 13.8 mph - N/A   Overcast
12:53 PM 35.1 °F 25.2 °F 27.0 °F 72% 30.08 in 10.0 mi SW 16.1 mph - N/A   Overcast
1:53 PM 34.0 °F 25.0 °F 27.0 °F 75% 30.08 in 9.0 mi SW 12.7 mph 21.9 mph 0.00 in Snow Light Snow
3:26 PM 32.0 °F 23.6 °F 28.9 °F 88% 30.03 in 2.0 mi SSW 10.4 mph - 0.00 in Snow Light Snow
3:37 PM 32.0 °F 24.8 °F 28.9 °F 88% 30.03 in 4.0 mi South 8.1 mph - 0.00 in Snow Light Snow
3:53 PM 32.0 °F 25.6 °F 28.9 °F 88% 30.08 in 8.0 mi South 6.9 mph - 0.00 in Snow Light Snow
4:53 PM 32.0 °F 26.4 °F 28.9 °F 88% 30.08 in 10.0 mi South 5.8 mph - 0.01 in   Overcast
5:53 PM 32.0 °F 27.5 °F 28.9 °F 88% 30.06 in 10.0 mi South 4.6 mph - N/A   Overcast
6:53 PM 30.9 °F 27.5 °F 28.9 °F 92% 30.05 in 10.0 mi SW 3.5 mph - N/A   Overcast
7:22 PM 32.0 °F 28.7 °F 28.9 °F 88% 29.98 in 10.0 mi SSE 3.5 mph - N/A   Overcast
7:53 PM 32.0 °F - 30.0 °F 92% 30.03 in 10.0 mi Calm Calm - N/A   Overcast
8:53 PM 30.9 °F - 28.9 °F 92% 30.01 in 10.0 mi Calm Calm - N/A   Mostly Cloudy
9:53 PM 33.1 °F 27.7 °F 28.9 °F 85% 30.00 in 10.0 mi South 5.8 mph - N/A   Clear
10:53 PM 33.1 °F - 28.9 °F 85% 29.99 in 10.0 mi Calm Calm - N/A   Clear
11:53 PM 37.0 °F 29.3 °F 30.0 °F 76% 29.97 in 10.0 mi SSW 11.5 mph - N/A   Clear